User: anonymous   Login
Location: Fort Wayne
(41.1310°N, 85.1290°W)
Time: 18:10:07
(UTC-04:00)
Language:

Meteor 2-10 Rocket - Orbit

View from above orbital plane
View from above orbital plane
View from above satellite
View from above satellite

Ground track
Ground track

The orbit data is extracted from the following two-line orbital elements,

1 14453U 83109B   17289.74682994 +.00000043 +00000-0 +11948-4 0  9998
2 14453 081.1681 344.0184 0106044 072.2705 289.0014 14.24682007764764
Epoch (UTC): 16 October 2017 17:55:26
Eccentricity: 0.0106044
inclination: 81.1681°
perigee height: 733 km
apogee height: 886 km
right ascension of ascending node: 344.0184°
argument of perigee: 72.2705°
revolutions per day: 14.24682007
mean anomaly at epoch: 289.0014°
orbit number at epoch: 76476

The dashed part of the orbit path shows where the satellite is in the earth's shadow,  

DLR